When you browse on this site, cookies collect data to enhance your experience and personalize the content and advertising you see.
Visit our Privacy Policy to learn more. By continuing to use the site, you agree to this use of cookies and data.

Meteo pe oră la Ahtopol

Astăzi, 9 Iulie, Joi

Timp Temperatura Precipitaţii Vânt Presiune Umiditate
00:00 +19°C° 0 mm 1 m/s 761 mmHg 76%
01:00 +19°C° 0 mm 1 m/s 761 mmHg 77%
02:00 +18°C° 0 mm 1 m/s 761 mmHg 79%
03:00 +18°C° 0 mm 1 m/s 761 mmHg 80%
04:00 +18°C° 0 mm 1 m/s 761 mmHg 80%
05:00 +18°C° 0 mm 1 m/s 762 mmHg 81%
06:00 +19°C° 0 mm 2 m/s 762 mmHg 73%
07:00 +21°C° 0 mm 2 m/s 762 mmHg 66%
08:00 +24°C° 0 mm 2 m/s 762 mmHg 57%
09:00 +25°C° 0 mm 3 m/s 762 mmHg 52%
10:00 +26°C° 0 mm 4 m/s 762 mmHg 48%
11:00 +28°C° 0 mm 4 m/s 762 mmHg 44%
12:00 +28°C° 0 mm 4 m/s 762 mmHg 43%
13:00 +28°C° 0 mm 5 m/s 762 mmHg 42%
14:00 +29°C° 0 mm 5 m/s 762 mmHg 41%
15:00 +28°C° 0 mm 5 m/s 762 mmHg 44%
16:00 +27°C° 0 mm 5 m/s 762 mmHg 46%
17:00 +27°C° 0 mm 5 m/s 761 mmHg 49%
18:00 +25°C° 0 mm 4 m/s 762 mmHg 57%
19:00 +22°C° 0 mm 3 m/s 762 mmHg 65%
20:00 +20°C° 0 mm 2 m/s 762 mmHg 73%
21:00 +20°C° 0 mm 2 m/s 762 mmHg 75%
22:00 +19°C° 0 mm 2 m/s 762 mmHg 77%
23:00 +20°C° 0 mm 1 m/s 762 mmHg 80%

Mâine, 10 Iulie, Vineri

Timp Temperatura Precipitaţii Vânt Presiune Umiditate
00:00 +19°C° 0 mm 1 m/s 762 mmHg 80%
01:00 +19°C° 0 mm 1 m/s 762 mmHg 80%
02:00 +19°C° 0 mm 1 m/s 762 mmHg 80%
03:00 +19°C° 0 mm 1 m/s 762 mmHg 80%
04:00 +19°C° 0 mm 1 m/s 762 mmHg 81%
05:00 +17°C° 0 mm 2 m/s 762 mmHg 81%
06:00 +20°C° 0 mm 3 m/s 762 mmHg 75%
07:00 +22°C° 0 mm 3 m/s 762 mmHg 68%
08:00 +25°C° 0 mm 4 m/s 762 mmHg 62%
09:00 +26°C° 0 mm 5 m/s 762 mmHg 57%
10:00 +27°C° 0 mm 5 m/s 762 mmHg 53%
11:00 +28°C° 0 mm 6 m/s 762 mmHg 49%
12:00 +28°C° 0 mm 6 m/s 762 mmHg 48%
13:00 +28°C° 0 mm 6 m/s 762 mmHg 48%
14:00 +29°C° 0 mm 6 m/s 761 mmHg 48%
15:00 +28°C° 0 mm 6 m/s 761 mmHg 50%
16:00 +28°C° 0 mm 6 m/s 761 mmHg 52%
17:00 +27°C° 0 mm 6 m/s 761 mmHg 54%
18:00 +26°C° 0 mm 5 m/s 761 mmHg 61%
19:00 +23°C° 0 mm 5 m/s 761 mmHg 68%
20:00 +21°C° 0 mm 4 m/s 761 mmHg 76%
21:00 +21°C° 0 mm 4 m/s 761 mmHg 78%
22:00 +20°C° 0 mm 4 m/s 761 mmHg 80%
23:00 +20°C° 0 mm 4 m/s 761 mmHg 82%

Poimâine, 11 Iulie, Sâmbătă

Timp Temperatura Precipitaţii Vânt Presiune Umiditate
00:00 +20°C° 0 mm 3 m/s 761 mmHg 84%
01:00 +19°C° 0 mm 3 m/s 761 mmHg 86%
02:00 +19°C° 0 mm 3 m/s 761 mmHg 88%
03:00 +19°C° 0 mm 3 m/s 760 mmHg 89%
04:00 +19°C° 0 mm 3 m/s 760 mmHg 90%
05:00 +19°C° 0 mm 3 m/s 760 mmHg 90%
06:00 +21°C° 0 mm 3 m/s 760 mmHg 84%
07:00 +22°C° 0 mm 4 m/s 760 mmHg 77%
08:00 +25°C° 0 mm 4 m/s 760 mmHg 70%
09:00 +26°C° 0 mm 5 m/s 760 mmHg 66%
10:00 +27°C° 0 mm 5 m/s 760 mmHg 61%
11:00 +28°C° 0 mm 5 m/s 760 mmHg 57%
12:00 +29°C° 0 mm 6 m/s 760 mmHg 55%
13:00 +29°C° 0 mm 6 m/s 759 mmHg 53%
14:00 +30°C° 0 mm 6 m/s 759 mmHg 52%
15:00 +29°C° 0 mm 6 m/s 759 mmHg 55%
16:00 +28°C° 0 mm 6 m/s 759 mmHg 58%
17:00 +28°C° 0 mm 5 m/s 758 mmHg 61%
18:00 +26°C° 0 mm 5 m/s 758 mmHg 70%
19:00 +25°C° 0 mm 4 m/s 758 mmHg 79%
20:00 +22°C° 0 mm 3 m/s 758 mmHg 87%
21:00 +21°C° 0 mm 3 m/s 758 mmHg 88%
22:00 +21°C° 0 mm 3 m/s 758 mmHg 90%
23:00 +20°C° 0 mm 2 m/s 758 mmHg 91%

12 Iulie, Duminică

Timp Temperatura Precipitaţii Vânt Presiune Umiditate
00:00 +20°C° 0 mm 2 m/s 758 mmHg 91%
01:00 +19°C° 0 mm 2 m/s 758 mmHg 92%
02:00 +19°C° 0 mm 2 m/s 757 mmHg 92%
03:00 +19°C° 0 mm 2 m/s 757 mmHg 92%
04:00 +18°C° 0 mm 2 m/s 757 mmHg 93%
05:00 +18°C° 0 mm 2 m/s 757 mmHg 93%
06:00 +20°C° 0 mm 2 m/s 757 mmHg 85%
07:00 +23°C° 0 mm 2 m/s 757 mmHg 78%
08:00 +25°C° 0 mm 2 m/s 757 mmHg 70%
09:00 +26°C° 0 mm 2 m/s 757 mmHg 62%
10:00 +28°C° 0 mm 2 m/s 757 mmHg 55%
11:00 +30°C° 0 mm 3 m/s 757 mmHg 47%
12:00 +30°C° 0 mm 3 m/s 757 mmHg 45%
13:00 +31°C° 0 mm 3 m/s 757 mmHg 42%
14:00 +33°C° 0 mm 3 m/s 757 mmHg 40%
15:00 +33°C° 0 mm 3 m/s 757 mmHg 42%
16:00 +31°C° 0 mm 3 m/s 756 mmHg 44%
17:00 +31°C° 0 mm 3 m/s 756 mmHg 46%
18:00 +28°C° 0 mm 2 m/s 756 mmHg 57%
19:00 +26°C° 0 mm 2 m/s 756 mmHg 67%
20:00 +24°C° 0 mm 1 m/s 757 mmHg 78%
21:00 +23°C° 0 mm 1 m/s 757 mmHg 77%
22:00 +23°C° 0 mm 2 m/s 757 mmHg 77%
23:00 +21°C° 0 mm 2 m/s 757 mmHg 76%

13 Iulie, Luni

Timp Temperatura Precipitaţii Vânt Presiune Umiditate
00:00 +21°C° 0 mm 3 m/s 757 mmHg 76%
01:00 +20°C° 0 mm 4 m/s 757 mmHg 75%
02:00 +20°C° 0 mm 4 m/s 756 mmHg 74%
03:00 +20°C° 0 mm 4 m/s 756 mmHg 73%
04:00 +19°C° 0 mm 4 m/s 756 mmHg 72%
05:00 +19°C° 0 mm 4 m/s 756 mmHg 71%
06:00 +20°C° 0 mm 4 m/s 757 mmHg 65%
07:00 +21°C° 0 mm 5 m/s 757 mmHg 59%
08:00 +23°C° 0 mm 5 m/s 757 mmHg 53%
09:00 +24°C° 0 mm 6 m/s 757 mmHg 50%
10:00 +26°C° 0 mm 6 m/s 757 mmHg 48%
11:00 +27°C° 0 mm 6 m/s 757 mmHg 45%
12:00 +28°C° 0 mm 7 m/s 757 mmHg 46%
13:00 +28°C° 0 mm 7 m/s 757 mmHg 48%
14:00 +28°C° 0 mm 7 m/s 757 mmHg 49%
15:00 +27°C° 0 mm 7 m/s 757 mmHg 51%
16:00 +27°C° 0 mm 7 m/s 757 mmHg 53%
17:00 +26°C° 0 mm 7 m/s 757 mmHg 55%
18:00 +23°C° 0 mm 7 m/s 757 mmHg 59%
19:00 +21°C° 0 mm 6 m/s 758 mmHg 64%
20:00 +19°C° 0 mm 5 m/s 758 mmHg 68%
21:00 +17°C° 0 mm 5 m/s 758 mmHg 72%
22:00 +17°C° 0 mm 4 m/s 758 mmHg 75%
23:00 +16°C° 0 mm 3 m/s 759 mmHg 79%

14 Iulie, Marţi

Timp Temperatura Precipitaţii Vânt Presiune Umiditate
00:00 +14°C° 0 mm 3 m/s 759 mmHg 80%
01:00 +15°C° 0 mm 2 m/s 759 mmHg 82%
02:00 +15°C° 0 mm 2 m/s 759 mmHg 83%
03:00 +15°C° 0 mm 2 m/s 759 mmHg 83%
04:00 +14°C° 0 mm 2 m/s 759 mmHg 83%
05:00 +14°C° 0 mm 2 m/s 759 mmHg 84%
06:00 +16°C° 0 mm 2 m/s 759 mmHg 75%
07:00 +18°C° 0 mm 3 m/s 759 mmHg 67%
08:00 +20°C° 0 mm 3 m/s 759 mmHg 58%
09:00 +22°C° 0 mm 3 m/s 759 mmHg 52%
10:00 +24°C° 0 mm 3 m/s 759 mmHg 47%
11:00 +26°C° 0 mm 4 m/s 759 mmHg 41%
12:00 +26°C° 0 mm 4 m/s 759 mmHg 40%
13:00 +27°C° 0 mm 4 m/s 759 mmHg 39%
14:00 +28°C° 0 mm 4 m/s 759 mmHg 38%
15:00 +27°C° 0 mm 4 m/s 758 mmHg 40%
16:00 +27°C° 0 mm 4 m/s 758 mmHg 43%
17:00 +26°C° 0 mm 4 m/s 758 mmHg 46%
18:00 +24°C° 0 mm 3 m/s 758 mmHg 53%
19:00 +21°C° 0 mm 3 m/s 758 mmHg 60%
20:00 +19°C° 0 mm 2 m/s 759 mmHg 67%
21:00 +18°C° 0 mm 2 m/s 759 mmHg 70%
22:00 +19°C° 0 mm 1 m/s 759 mmHg 73%
23:00 +18°C° 0 mm 1 m/s 759 mmHg 76%
Arată mai mult